This demonstration page uses our WeatherBlox Daily Observations layout. Learn more.

Left ArrowRight Arrow

39.12711, -84.51439

Hourly Observations for July 19, 2021

Temp ( °F °C ) Dew Point ( °F °C ) Humidity (%) Winds ( mph kmh ) Pressure ( in mb ) Visibility ( mi km ) Precip ( " mm )
12:53 am 00:53 Clear 66 18.9 64 17.8 93 93 N N/A 30.15 1021 10 16 N/A
1:53 am 01:53 Clear 65 18.3 64 17.8 97 97 NE 3 6 30.14 1021 8 13 N/A
2:53 am 02:53 Clear 64 17.8 62 16.7 93 93 ENE 3 6 30.13 1020 7 11 N/A
3:53 am 03:53 Clear with Mist and Fog 63 17.2 62 16.7 97 97 N N/A 30.12 1020 6 10 N/A
4:16 am 04:16 Clear with Mist and Fog 63 17.2 62 16.7 97 97 N N/A 30.12 1020 2 2 N/A
4:32 am 04:32 Clear with Mist and Fog 63 17.2 62 16.7 97 97 N N/A 30.13 1020 5 8 N/A
4:53 am 04:53 Clear with Mist and Fog 63 17.2 62 16.7 97 97 N N/A 30.13 1020 3 5 N/A
5:08 am 05:08 Clear with Mist and Fog 63 17.2 62 16.7 97 97 N N/A 30.13 1020 2 2 N/A
5:23 am 05:23 Clear with Mist and Fog 62 16.7 62 16.7 100 100 N N/A 30.13 1020 3 5 N/A
5:39 am 05:39 Clear with Mist and Fog 61 16.1 61 16.1 100 100 N N/A 30.14 1021 2 3 N/A
5:48 am 05:48 Clear with Mist and Fog 63 17 61 16 94 94 N N/A 30.13 1020 3 5 N/A
5:53 am 05:53 Clear with Mist and Fog 63 17.2 62 16.7 97 97 N N/A 30.13 1020 5 8 N/A
6:02 am 06:02 Clear with Mist and Fog 63 17.2 62 16.7 97 97 N N/A 30.13 1020 2 3 N/A
6:24 am 06:24 Clear 62 16.7 61 16.1 96 96 N N/A 30.13 1020 7 11 N/A
6:38 am 06:38 Sunny with Mist and Fog 62 16.7 61 16.1 96 96 N N/A 30.14 1021 2 3 N/A
6:46 am 06:46 Sunny with Mist and Fog 62 16.7 61 16.1 96 96 N N/A 30.14 1021 1 1 N/A
6:53 am 06:53 Sunny with Patchy Fog 63 17.2 61 16.1 93 93 N N/A 30.14 1021 6 10 N/A
7:53 am 07:53 Sunny 65 18.3 64 17.8 97 97 N N/A 30.14 1021 10 16 N/A
8:53 am 08:53 Sunny 70 21.1 64 17.8 82 82 ENE 3 6 30.14 1021 10 16 N/A
9:53 am 09:53 Sunny 74 23.3 65 18.3 74 74 NNE 5 7 30.14 1021 10 16 N/A
10:53 am 10:53 Sunny 78 25.6 65 18.3 64 64 NNE 7 11 30.14 1021 10 16 N/A
11:53 am 11:53 Sunny 81 27.2 65 18.3 58 58 NE 3 6 30.14 1021 10 16 N/A
12:53 pm 12:53 Sunny 82 27.8 64 17.8 55 55 NE 9 15 30.14 1021 10 16 N/A
1:53 pm 13:53 Sunny 83 28.3 64 17.8 53 53 NE 8 13 30.13 1020 10 16 N/A
2:53 pm 14:53 Mostly Sunny 84 28.9 63 17.2 49 49 ENE 5 7 30.11 1020 10 16 N/A
3:53 pm 15:53 Sunny 84 28.9 64 17.8 51 51 ENE 6 9 30.09 1019 10 16 N/A
4:53 pm 16:53 Sunny 84 28.9 63 17.2 49 49 ENE 8 13 30.07 1018 10 16 N/A
5:53 pm 17:53 Sunny 83 28.3 65 18.3 55 55 ENE 9 15 30.06 1018 10 16 N/A
6:53 pm 18:53 Mostly Sunny 82 27.8 66 18.9 58 58 NE 7 11 30.06 1018 9 14 N/A
7:53 pm 19:53 Mostly Sunny 79 26.1 66 18.9 65 65 NE 6 9 30.06 1018 9 14 N/A
8:53 pm 20:53 Sunny 75 23.9 65 18.3 71 71 NNE 3 6 30.06 1018 9 14 N/A
9:53 pm 21:53 Clear 70 21.1 66 18.9 87 87 N N/A 30.07 1018 9 14 N/A
10:53 pm 22:53 Clear 68 20 64 17.8 87 87 N N/A 30.08 1019 9 14 N/A
11:53 pm 23:53 Clear 67 19.4 64 17.8 91 91 N N/A 30.08 1019 9 14 N/A

Powered by AerisWeather